|
NORAD ID: 25253 Int'l Code: 1978-068C
Perigee: 915.5 km
Apogee: 35,543.4 km
Inclination: 21.5 °
Period: 640.0 minutes
Semi major axis: 24600 km
Launch date: June 29, 1978
Source: United States (US)
Note: This is SATELLITE DEBRIS
Two Line Element Set (TLE):
1 25253U 78068C 13142.51870347 .00000058 00000-0 30863-2 0 1067
2 25253 021.4949 184.7571 7038054 173.0230 357.8385 02.25003241130466
Source:
NASA's NSSDC Master Catalog entry for ATLAS CENTAUR DEB
|